Overview Statistics Trail Chart Weather Telemetry Raw packets
 

This is the latest recevied weather packets stored in our database for station/object KB4RFE. If no packets are shown the sender has not sent any weather packets the latest 10 day(s).

<< 92 93 94 95 96 97 98 >>
Time Temp. Humidity Pressure Rain* Wind** Luminosity Snow
1787943940 28.33° C 85% 1020.4 hPa 0 mm - 68 W/m² -
1787943637 28.89° C 82% 1020.3 hPa 0 mm - 78 W/m² -
1787943336 28.89° C 80% 1020.5 hPa 0 mm - 88 W/m² -
1787943031 28.89° C 80% 1020.5 hPa 0 mm - 104 W/m² -
1787942732 29.44° C 79% 1020.4 hPa 0 mm - 129 W/m² -
1787942434 29.44° C 78% 1020.4 hPa 0 mm - 166 W/m² -
1787942126 29.44° C 78% 1020.3 hPa 0 mm - 184 W/m² -
1787941822 29.44° C 77% 1020.3 hPa 0 mm - 231 W/m² -
1787941521 30° C 76% 1020.4 hPa 0 mm - 269 W/m² -
1787941216 30° C 75% 1020.3 hPa 0 mm - 291 W/m² -
1787940914 30° C 76% 1020.4 hPa 0 mm - 248 W/m² -
1787940609 30° C 73% 1020.5 hPa 0 mm - 433 W/m² -
1787940303 30.56° C 75% 1020.5 hPa 0 mm - 629 W/m² -
1787940001 30.56° C 73% 1020.5 hPa 0 mm - 562 W/m² -
1787939696 30.56° C 75% 1020.5 hPa 0 mm - 935 W/m² -
1787939390 30° C 77% 1020.4 hPa 0 mm - 938 W/m² -
1787939086 30° C 76% 1020.5 hPa 0 mm - 604 W/m² -
1787938785 30° C 75% 1020.4 hPa 0 mm - 931 W/m² -
1787938480 30° C 75% 1020.3 hPa 0 mm - 988 W/m² -
1787938175 30° C 77% 1020.5 hPa 0 mm - 953 W/m² -
1787937870 29.44° C 75% 1020.5 hPa 0 mm - 1087 W/m² -
1787937566 29.44° C 78% 1020.4 hPa 0 mm - 979 W/m² -
1787937267 28.89° C 79% 1020.7 hPa 0 mm - 633 W/m² -
1787936963 28.89° C 80% 1020.4 hPa 0 mm - 659 W/m² -
1787936661 28.33° C 82% 1020.7 hPa 0 mm - 582 W/m² -

* Rain latest hour (hover to see other rain measurements)
** Current wind speed in m/s (hover to see current wind gust speed)